Location: Laporte
(40.6264°N, 105.1378°W)
Time: 11:44:47
(UTC+00:00)

Tiangong - Visible Passes

Search period start: 09 August 2022 00:00
Search period end: 19 August 2022 00:00
Orbit: 379 x 387 km, 41.5° (Epoch: 08 August)

Date Brightness Start Highest point End Pass type
(mag) Time Alt. Az. Time Alt. Az. Time Alt. Az.
09 Aug -2.2 10:24:09 61° SW 10:24:25 65° SSW 10:27:33 10° ESE visible
10 Aug -1.1 10:59:47 22° WSW 11:00:49 26° SSW 11:03:32 10° SSE visible
11 Aug 0.6 10:03:30 11° SE 10:03:30 11° SE 10:03:43 10° SE visible
15 Aug -0.3 02:44:36 10° S 02:46:28 15° SSE 02:47:25 13° SE visible
16 Aug -1.7 03:19:40 10° SW 03:22:37 39° SSE 03:22:54 38° SE visible
17 Aug -1.2 03:55:50 10° WSW 03:58:04 43° WSW 03:58:04 43° WSW visible
18 Aug -2.1 02:55:33 10° WSW 02:58:39 60° SSE 03:00:48 18° E visible
18 Aug 0.7 04:32:18 10° W 04:32:59 15° W 04:32:59 15° W visible
